#timestamp,LO_Frequency,Hit,StdDev 
1571162415.3,286047001.6,N
1571162435.1,286047002.0,N
1571162436.0,286047002.0,N
1571162455.8,286047002.7,N
1571162475.7,286047000.7,N
1571162495.5,286046998.6,N
1571162515.4,286047001.0,N
1571162535.2,286047000.5,N
1571162555.0,286047002.8,N
1571162555.9,286047002.8,N
1571162575.8,286047001.6,N
1571162595.6,286047001.5,N
1571162615.4,286047001.7,N
1571162635.3,286047001.7,N
1571162655.1,286047002.2,N
1571162675.9,286047001.7,N
1571162695.7,286047006.0,Y
1571162715.5,286047000.2,P
1571162735.4,286047000.9,N
1571162755.2,286047001.2,N
1571162775.0,286046998.6,N
1571162775.9,286046998.6,N
1571162795.8,286046998.7,N
1571162815.6,286046997.0,N
1571162835.5,286046999.2,N
1571162855.3,286046998.4,N
1571162875.1,286046998.5,N
1571162895.9,286046997.0,N
1571162915.7,286046997.1,N
1571162935.5,286046999.6,N
1571162955.4,286046999.5,N
1571162975.2,286046999.5,N
1571162995.1,286046997.4,N
1571163026.0,286046997.4,E
1571163035.0,286046999.5,N
1571163035.9,286046999.5,P
1571163055.8,286046999.9,P
1571163075.6,286047001.7,Y
1571163095.4,286047003.7,P
1571163115.3,286047003.6,N
1571163135.1,286047004.3,N
1571163155.8,286047003.1,N
1571163175.7,286047002.3,N
1571163195.5,286046999.7,N
1571163215.4,286047002.3,N
1571163235.2,286047001.4,N
1571163255.0,286047001.5,N
1571163255.9,286047001.5,N
1571163275.8,286047002.5,N
1571163295.6,286046999.8,N
1571163315.5,286047000.4,N
1571163335.3,286046998.2,N
1571163385.2,286047000.7,E
1571163395.1,286047000.7,N
1571163396.0,286047000.7,P
1571163415.8,286047001.2,P
1571163435.7,286046998.5,Y
1571163455.5,286046996.9,P
1571163475.3,286046998.8,N
1571163495.2,286046998.9,N
1571163515.0,286047001.2,N
1571163515.9,286047001.2,N
1571163535.8,286047002.4,N
1571163555.6,286047002.6,N
1571163575.4,286047002.4,N
1571163595.3,286046998.1,N
1571163615.1,286046998.5,N
1571163616.0,286046998.5,N
1571163635.8,286046999.9,N
1571163655.7,286047000.2,N
1571163675.5,286047000.3,N
1571163695.3,286046998.8,N
1571163715.2,286046999.1,N
1571163735.0,286047001.1,N
1571163735.9,286047001.1,N
1571163755.8,286047002.1,N
1571163775.6,286047000.8,N
1571163795.4,286046999.3,N
1571163815.3,286046999.0,N
1571163835.1,286047001.0,N
1571163855.9,286047000.9,N
1571163875.7,286047002.2,N
1571163895.5,286047002.1,N
1571163915.4,286047001.4,N
1571163935.2,286047002.1,N
1571163955.0,286047002.2,N
1571163955.9,286047002.2,N
1571163975.8,286047002.1,N
1571163995.6,286047003.6,N
1571164015.5,286047003.4,N
1571164035.3,286047003.0,N
1571164055.1,286047002.5,N
1571164075.9,286047004.0,N
1571164095.7,286047004.1,N
1571164115.5,286047003.0,N
1571164135.4,286047003.1,N
1571164155.2,286047003.2,N
1571164175.1,286047003.7,N
1571164176.0,286047003.7,N
1571164195.8,286047003.3,N
1571164215.6,286047005.9,Y
1571164235.5,286046999.7,P
1571164255.3,286047001.4,N
1571164275.2,286047000.0,N
1571164295.9,286047002.0,N
1571164315.7,286047004.0,Y
1571164335.6,286047002.5,P
1571164355.4,286047002.3,P
1571164375.2,286047002.8,P
1571164395.1,286047000.6,N
1571164396.0,286047000.6,N
1571164415.8,286047001.4,N
1571164435.7,286047004.2,Y
1571164455.5,286047002.4,P
1571164475.3,286046999.8,N
1571164495.2,286047000.9,N
1571164515.0,286047000.9,N
1571164515.9,286047000.9,N
1571164535.7,286047000.4,N
1571164555.6,286046998.4,N
1571164575.4,286046998.5,N
1571164595.3,286047000.3,N
1571164615.1,286046998.1,N
1571164635.8,286047000.7,N
1571164655.7,286046999.7,N
1571164675.5,286047001.8,N
1571164695.4,286047002.5,N
1571164715.2,286047004.0,N
1571164735.0,286047003.5,N
1571164735.9,286047003.5,N
1571164755.8,286047004.3,N
1571164775.6,286047002.1,N
1571164795.4,286047000.1,N
1571164815.3,286046999.7,N
1571164835.1,286047000.9,N
1571164855.9,286047000.4,N
1571164875.7,286047001.4,N
1571164895.5,286047003.9,N
1571164915.4,286047003.0,N
1571164935.2,286047005.5,Y
1571164955.0,286047005.4,P
1571164956.0,286047005.4,N
1571164975.8,286047005.7,N
1571164995.6,286047005.8,Y
1571165015.5,286047000.3,P
1571165035.3,286046999.9,N
1571165055.1,286046998.6,N
1571165075.9,286047001.1,N
1571165095.7,286046998.1,N
1571165115.6,286047000.9,N
1571165135.4,286047000.0,N
1571165155.2,286047002.8,N
1571165175.1,286047004.0,N
1571165176.0,286047004.0,N
1571165195.8,286047001.6,N
1571165215.6,286047001.0,N
1571165235.5,286047000.8,N
1571165255.3,286046998.6,N
1571165275.2,286046998.1,N
1571165295.9,286047000.6,N
1571165315.7,286047002.4,N
1571165335.6,286047002.0,N
1571165355.4,286047000.1,N
1571165375.2,286047000.0,N
1571165395.1,286047002.5,N
1571165396.0,286047002.5,N
1571165415.8,286047004.2,N
1571165435.7,286047003.8,N
1571165455.5,286047003.7,N
1571165475.3,286047005.7,N
1571165495.2,286047006.4,Y
1571165515.0,286047005.4,P
1571165515.9,286047005.4,N
1571165535.8,286047005.9,P
1571165555.6,286047005.7,Y
1571165575.4,286046999.8,P
1571165595.3,286047002.1,N
1571165615.1,286047002.7,N
1571165635.8,286047004.2,N
1571165655.7,286047004.1,N
1571165675.5,286047003.9,N
1571165695.4,286047002.3,N
1571165715.2,286047004.4,N
1571165735.0,286047003.1,N
1571165735.9,286047003.1,N
1571165755.8,286047006.0,Y
1571165775.6,286047002.4,P
1571165795.5,286047000.9,N
1571165815.3,286047001.7,N
1571165835.1,286047001.5,N
1571165855.9,286047002.3,N
1571165875.7,286047004.2,Y
1571165895.5,286047000.3,P
1571165915.4,286047001.1,N
1571165935.2,286047000.0,N
1571165955.1,286047000.3,N
1571165956.0,286047000.3,N
1571165975.8,286046998.5,N
1571165995.6,286046998.7,N
